TimeCST,TemperatureF,Dew PointF,Humidity,Sea Level PressureIn,VisibilityMPH,Wind Direction,Wind SpeedMPH,Gust SpeedMPH,PrecipitationIn,Events,Conditions,WindDirDegrees,DateUTC
6:00 AM,67,58,66,29.89,12,Calm,Calm,,,,,,2012-11-24 12:00:00
6:00 AM,68.0,59.0,73,29.87,-9999.0,Calm,Calm,-,N/A,,Clear,0,2012-11-24 12:00:00
7:00 AM,71.6,60.8,69,29.91,-9999.0,SSE,3.5,-,N/A,,Clear,160,2012-11-24 13:00:00
8:00 AM,75.2,60.8,61,29.92,-9999.0,WSW,5.8,-,N/A,,Clear,240,2012-11-24 14:00:00
9:00 AM,80,58,37,29.94,12,West,8.1,,,,Clear,260,2012-11-24 15:00:00
9:00 AM,80.6,59.0,48,29.93,-9999.0,West,8.1,-,N/A,,Clear,260,2012-11-24 15:00:00
10:00 AM,82.4,59.0,45,29.91,-9999.0,West,5.8,-,N/A,,Clear,260,2012-11-24 16:00:00
11:00 AM,84.2,59.0,42,29.87,-9999.0,WSW,6.9,-,N/A,,Clear,250,2012-11-24 17:00:00
12:00 PM,88,59,27,29.86,12,East,12.7,,,,Clear,100,2012-11-24 18:00:00
12:00 PM,87.8,59.0,38,29.85,-9999.0,East,12.7,-,N/A,,Clear,100,2012-11-24 18:00:00
1:00 PM,86.0,57.2,37,29.81,-9999.0,East,15.0,-,N/A,,Clear,90,2012-11-24 19:00:00
2:00 PM,86.0,59.0,40,29.79,-9999.0,East,16.1,-,N/A,,Clear,80,2012-11-24 20:00:00
3:00 PM,86,59,30,29.78,12,East,15.0,,,,Scattered Clouds,90,2012-11-24 21:00:00
3:00 PM,86.0,59.0,40,29.76,-9999.0,East,15.0,-,N/A,,Clear,90,2012-11-24 21:00:00
4:00 PM,84.2,60.8,45,29.78,-9999.0,East,9.2,-,N/A,,Clear,80,2012-11-24 22:00:00
5:00 PM,80.6,60.8,51,29.78,-9999.0,East,12.7,-,N/A,,Clear,90,2012-11-24 23:00:00
6:00 PM,80,61,42,29.83,12,East,3.5,,,,Mostly Cloudy,100,2012-11-25 00:00:00
6:00 PM,80.6,60.8,51,29.81,-9999.0,East,3.5,-,N/A,,Clear,100,2012-11-25 00:00:00
7:00 PM,80.6,59.0,48,29.81,-9999.0,SE,4.6,-,N/A,,Clear,130,2012-11-25 01:00:00
8:00 PM,73.4,62.6,69,29.86,-9999.0,NNE,3.5,-,N/A,,Clear,30,2012-11-25 02:00:00